Location: Lombard
(41.8800°N, 88.0080°W)
Time: 08:06:05
(UTC-06:00)

Tiangong - Visible Passes

Search period start: 13 December 2025 00:00
Search period end: 23 December 2025 00:00
Orbit: 384 x 395 km, 41.5° (Epoch: 12 December)

Date Brightness Start Highest point End Pass type
(mag) Time Alt. Az. Time Alt. Az. Time Alt. Az.
21 Dec 0.0 18:14:07 10° SSW 18:15:46 18° SSE 18:15:46 18° SSE visible
22 Dec 0.4 17:17:01 10° S 17:18:14 12° SSE 17:19:27 10° SE visible
22 Dec 0.6 18:51:37 10° SW 18:52:34 18° SW 18:52:34 18° SW visible
